Portada
METAR-TAF:

METAR-TAF

Aeroports :

Santa Ana del Yacuma, Bolívia

latitud: 13-46S, longitud: 065-26W, altitud: 144 m

Observació

L'informe es va fer fa 11 hores i 13 minuts, a les 23:00 UTC
Vent 4 kt del Nord
Temperatura 25°C
Humitat 94%
Pressió 1007 hPa
Visibilitat: 7000 m
Núvols disperses a una alçada de 1700 ft
Escasses núvols a una alçada de 2300 ft, Cumulonimbus.
Cel ennuvolat a una alçada de 20000 ft
xàfecs en les proximitats

METAR: SLSA 242300Z 36004KT 7000 VCSH SCT017 FEW023CB BKN200 25/24 Q1007

Hora: 06:13 (10:13 UTC)


TAF: manca

Observacions i pronòstics meteorològics de més de 4000 aeroports (METAR i TAF).

Les estacions disponibles són els punts grocs i vermells al mapa.

Posi el ratolí al punt desitjat per veure el nom de l'estació.

Feu clic per veure les observacions i els pronòstics meteorològics.

Per canviar el mapa: feu clic els botons verds amb una creu de color negre per apropar; al botó verd amb un guió per allunyar la imatge; o en les fletxes verdes per a mapes adjacents.


METAR-TAF: